Year,Month,Day,Hour,Minute,Value (Times are PST for temperature in C)
2016,06,28,00,00,19.50
2016,06,28,00,01,19.50
2016,06,28,00,02,19.50
2016,06,28,00,03,19.40
2016,06,28,00,04,19.40
2016,06,28,00,05,19.40
2016,06,28,00,06,19.40
2016,06,28,00,07,19.40
2016,06,28,00,08,19.40
2016,06,28,00,09,19.40
2016,06,28,00,10,19.40
2016,06,28,00,11,19.40
2016,06,28,00,12,19.40
2016,06,28,00,13,19.40
2016,06,28,00,14,19.30
2016,06,28,00,15,19.30
2016,06,28,00,16,19.30
2016,06,28,00,17,19.30
2016,06,28,00,18,19.30
2016,06,28,00,19,19.30
2016,06,28,00,20,19.20
2016,06,28,00,21,19.20
2016,06,28,00,22,19.20
2016,06,28,00,23,19.10
2016,06,28,00,24,19.10
2016,06,28,00,25,19.10
2016,06,28,00,26,19.10
2016,06,28,00,27,19.00
2016,06,28,00,28,19.00
2016,06,28,00,29,18.90
2016,06,28,00,30,18.90
2016,06,28,00,31,18.80
2016,06,28,00,32,18.80
2016,06,28,00,33,18.70
2016,06,28,00,34,18.70
2016,06,28,00,35,18.60
2016,06,28,00,36,18.60
2016,06,28,00,37,18.60
2016,06,28,00,38,18.50
2016,06,28,00,39,18.50
2016,06,28,00,40,18.40
2016,06,28,00,41,18.40
2016,06,28,00,42,18.40
2016,06,28,00,43,18.30
2016,06,28,00,44,18.30
2016,06,28,00,45,18.30
2016,06,28,00,46,18.30
2016,06,28,00,47,18.20
2016,06,28,00,48,18.20
2016,06,28,00,49,18.20
2016,06,28,00,50,18.20
2016,06,28,00,51,18.10
2016,06,28,00,52,18.10
2016,06,28,00,53,18.10
2016,06,28,00,54,18.00
2016,06,28,00,55,18.00
2016,06,28,00,56,17.90
2016,06,28,00,57,17.90
2016,06,28,00,58,17.90
2016,06,28,00,59,17.80
2016,06,28,01,00,17.80
2016,06,28,01,01,17.80
2016,06,28,01,02,17.70
2016,06,28,01,03,17.70
2016,06,28,01,04,17.70
2016,06,28,01,05,17.70
2016,06,28,01,06,17.70
2016,06,28,01,07,17.70
2016,06,28,01,08,17.60
2016,06,28,01,09,17.60
2016,06,28,01,10,17.60
2016,06,28,01,11,17.60
2016,06,28,01,12,17.60
2016,06,28,01,13,17.60
2016,06,28,01,14,17.60
2016,06,28,01,15,17.50
2016,06,28,01,16,17.50
2016,06,28,01,17,17.50
2016,06,28,01,18,17.40
2016,06,28,01,19,17.40
2016,06,28,01,20,17.40
2016,06,28,01,21,17.30
2016,06,28,01,22,17.30
2016,06,28,01,23,17.30
2016,06,28,01,24,17.30
2016,06,28,01,25,17.30
2016,06,28,01,26,17.20
2016,06,28,01,27,17.20
2016,06,28,01,28,17.20
2016,06,28,01,29,17.20
2016,06,28,01,30,17.20
2016,06,28,01,31,17.10
2016,06,28,01,32,17.10
2016,06,28,01,33,17.10
2016,06,28,01,34,17.10
2016,06,28,01,35,17.10
2016,06,28,01,36,17.10
2016,06,28,01,37,17.10
2016,06,28,01,38,17.10
2016,06,28,01,39,17.10
2016,06,28,01,40,17.00
2016,06,28,01,41,17.00
2016,06,28,01,42,17.00
2016,06,28,01,43,17.00
2016,06,28,01,44,17.00
2016,06,28,01,45,17.00
2016,06,28,01,46,17.00
2016,06,28,01,47,16.90
2016,06,28,01,48,16.90
2016,06,28,01,49,16.90
2016,06,28,01,50,16.90
2016,06,28,01,51,16.90
2016,06,28,01,52,16.80
2016,06,28,01,53,16.80
2016,06,28,01,54,16.80
2016,06,28,01,55,16.80
2016,06,28,01,56,16.70
2016,06,28,01,57,16.70
2016,06,28,01,58,16.70
2016,06,28,01,59,16.70
2016,06,28,02,00,16.70
2016,06,28,02,01,16.70
2016,06,28,02,02,16.70
2016,06,28,02,03,16.70
2016,06,28,02,04,16.70
2016,06,28,02,05,16.60
2016,06,28,02,06,16.60
2016,06,28,02,07,16.60
2016,06,28,02,08,16.60
2016,06,28,02,09,16.60
2016,06,28,02,10,16.50
2016,06,28,02,11,16.50
2016,06,28,02,12,16.40
2016,06,28,02,13,16.40
2016,06,28,02,14,16.40
2016,06,28,02,15,16.30
2016,06,28,02,16,16.30
2016,06,28,02,17,16.30
2016,06,28,02,18,16.30
2016,06,28,02,19,16.30
2016,06,28,02,20,16.20
2016,06,28,02,21,16.20
2016,06,28,02,22,16.20
2016,06,28,02,23,16.20
2016,06,28,02,24,16.20
2016,06,28,02,25,16.20
2016,06,28,02,26,16.20
2016,06,28,02,27,16.20
2016,06,28,02,28,16.20
2016,06,28,02,29,16.20
2016,06,28,02,30,16.20
2016,06,28,02,31,16.20
2016,06,28,02,32,16.20
2016,06,28,02,33,16.20
2016,06,28,02,34,16.30
2016,06,28,02,35,16.30
2016,06,28,02,36,16.30
2016,06,28,02,37,16.30
2016,06,28,02,38,16.30
2016,06,28,02,39,16.30
2016,06,28,02,40,16.30
2016,06,28,02,41,16.30
2016,06,28,02,42,16.30
2016,06,28,02,43,16.30
2016,06,28,02,44,16.30
2016,06,28,02,45,16.30
2016,06,28,02,46,16.30
2016,06,28,02,47,16.30
2016,06,28,02,48,16.30
2016,06,28,02,49,16.30
2016,06,28,02,50,16.30
2016,06,28,02,51,16.30
2016,06,28,02,52,16.30
2016,06,28,02,53,16.30
2016,06,28,02,54,16.20
2016,06,28,02,55,16.20
2016,06,28,02,56,16.20
2016,06,28,02,57,16.10
2016,06,28,02,58,16.10
2016,06,28,02,59,16.00
2016,06,28,03,00,16.00
2016,06,28,03,01,15.90
2016,06,28,03,02,15.90
2016,06,28,03,03,15.80
2016,06,28,03,04,15.80
2016,06,28,03,05,15.80
2016,06,28,03,06,15.80
2016,06,28,03,07,15.70
2016,06,28,03,08,15.70
2016,06,28,03,09,15.60
2016,06,28,03,10,15.60
2016,06,28,03,11,15.60
2016,06,28,03,12,15.50
2016,06,28,03,13,15.50
2016,06,28,03,14,15.50
2016,06,28,03,15,15.50
2016,06,28,03,16,15.50
2016,06,28,03,17,15.50
2016,06,28,03,18,15.50
2016,06,28,03,19,15.50
2016,06,28,03,20,15.40
2016,06,28,03,21,15.40
2016,06,28,03,22,15.40
2016,06,28,03,23,15.40
2016,06,28,03,24,15.30
2016,06,28,03,25,15.30
2016,06,28,03,26,15.30
2016,06,28,03,27,15.30
2016,06,28,03,28,15.30
2016,06,28,03,29,15.30
2016,06,28,03,30,15.30
2016,06,28,03,31,15.20
2016,06,28,03,32,15.20
2016,06,28,03,33,15.20
2016,06,28,03,34,15.20
2016,06,28,03,35,15.20
2016,06,28,03,36,15.20
2016,06,28,03,37,15.10
2016,06,28,03,38,15.10
2016,06,28,03,39,15.10
2016,06,28,03,40,15.10
2016,06,28,03,41,15.10
2016,06,28,03,42,15.10
2016,06,28,03,43,15.10
2016,06,28,03,44,15.10
2016,06,28,03,45,15.10
2016,06,28,03,46,15.10
2016,06,28,03,47,15.10
2016,06,28,03,48,15.10
2016,06,28,03,49,15.10
2016,06,28,03,50,15.10
2016,06,28,03,51,15.10
2016,06,28,03,52,15.10
2016,06,28,03,53,15.10
2016,06,28,03,54,15.10
2016,06,28,03,55,15.10
2016,06,28,03,56,15.10
2016,06,28,03,57,15.10
2016,06,28,03,58,15.10
2016,06,28,03,59,15.10
2016,06,28,04,00,15.10
2016,06,28,04,01,15.10
2016,06,28,04,02,15.10
2016,06,28,04,03,15.10
2016,06,28,04,04,15.10
2016,06,28,04,05,15.10
2016,06,28,04,06,15.00
2016,06,28,04,07,15.00
2016,06,28,04,08,15.00
2016,06,28,04,09,14.90
2016,06,28,04,10,14.90
2016,06,28,04,11,14.90
2016,06,28,04,12,14.80
2016,06,28,04,13,14.80
2016,06,28,04,14,14.70
2016,06,28,04,15,14.70
2016,06,28,04,16,14.70
2016,06,28,04,17,14.60
2016,06,28,04,18,14.60
2016,06,28,04,19,14.50
2016,06,28,04,20,14.50
2016,06,28,04,21,14.50
2016,06,28,04,22,14.40
2016,06,28,04,23,14.40
2016,06,28,04,24,14.30
2016,06,28,04,25,14.30
2016,06,28,04,26,14.30
2016,06,28,04,27,14.30
2016,06,28,04,28,14.20
2016,06,28,04,29,14.20
2016,06,28,04,30,14.20
2016,06,28,04,31,14.20
2016,06,28,04,32,14.10
2016,06,28,04,33,14.10
2016,06,28,04,34,14.10
2016,06,28,04,35,14.10
2016,06,28,04,36,14.10
2016,06,28,04,37,14.00
2016,06,28,04,38,14.00
2016,06,28,04,39,14.00
2016,06,28,04,40,14.00
2016,06,28,04,41,13.90
2016,06,28,04,42,13.90
2016,06,28,04,43,13.90
2016,06,28,04,44,13.90
2016,06,28,04,45,13.90
2016,06,28,04,46,13.90
2016,06,28,04,47,13.90
2016,06,28,04,48,13.90
2016,06,28,04,49,13.80
2016,06,28,04,50,13.80
2016,06,28,04,51,13.80
2016,06,28,04,52,13.80
2016,06,28,04,53,13.80
2016,06,28,04,54,13.80
2016,06,28,04,55,13.80
2016,06,28,04,56,13.80
2016,06,28,04,57,13.80
2016,06,28,04,58,13.80
2016,06,28,04,59,13.80
2016,06,28,05,00,13.80
2016,06,28,05,01,13.80
2016,06,28,05,02,13.80
2016,06,28,05,03,13.80
2016,06,28,05,04,13.80
2016,06,28,05,05,13.80
2016,06,28,05,06,13.80
2016,06,28,05,07,13.80
2016,06,28,05,08,13.80
2016,06,28,05,09,13.80
2016,06,28,05,10,13.80
2016,06,28,05,11,13.80
2016,06,28,05,12,13.80
2016,06,28,05,13,13.80
2016,06,28,05,14,13.80
2016,06,28,05,15,13.90
2016,06,28,05,16,13.90
2016,06,28,05,17,13.90
2016,06,28,05,18,13.90
2016,06,28,05,19,13.90
2016,06,28,05,20,13.90
2016,06,28,05,21,13.90
2016,06,28,05,22,13.90
2016,06,28,05,23,13.90
2016,06,28,05,24,13.90
2016,06,28,05,25,13.90
2016,06,28,05,26,13.90
2016,06,28,05,27,13.90
2016,06,28,05,28,13.90
2016,06,28,05,29,13.80
2016,06,28,05,30,13.80
2016,06,28,05,31,13.80
2016,06,28,05,32,13.80
2016,06,28,05,33,13.80
2016,06,28,05,34,13.80
2016,06,28,05,35,13.80
2016,06,28,05,36,13.70
2016,06,28,05,37,13.70
2016,06,28,05,38,13.70
2016,06,28,05,39,13.70
2016,06,28,05,40,13.70
2016,06,28,05,41,13.70
2016,06,28,05,42,13.70
2016,06,28,05,43,13.70
2016,06,28,05,44,13.70
2016,06,28,05,45,13.70
2016,06,28,05,46,13.70
2016,06,28,05,47,13.70
2016,06,28,05,48,13.70
2016,06,28,05,49,13.70
2016,06,28,05,50,13.70
2016,06,28,05,51,13.70
2016,06,28,05,52,13.70
2016,06,28,05,53,13.70
2016,06,28,05,54,13.70
2016,06,28,05,55,13.70
2016,06,28,05,56,13.70
2016,06,28,05,57,13.70
2016,06,28,05,58,13.70
2016,06,28,05,59,13.70
2016,06,28,06,00,13.70
2016,06,28,06,01,13.70
2016,06,28,06,02,13.70
2016,06,28,06,03,13.70
2016,06,28,06,04,13.70
2016,06,28,06,05,13.60
2016,06,28,06,06,13.60
2016,06,28,06,07,13.60
2016,06,28,06,08,13.60
2016,06,28,06,09,13.60
2016,06,28,06,10,13.60
2016,06,28,06,11,13.60
2016,06,28,06,12,13.60
2016,06,28,06,13,13.60
2016,06,28,06,14,13.60
2016,06,28,06,15,13.60
2016,06,28,06,16,13.60
2016,06,28,06,17,13.60
2016,06,28,06,18,13.60
2016,06,28,06,19,13.60
2016,06,28,06,20,13.60
2016,06,28,06,21,13.60
2016,06,28,06,22,13.60
2016,06,28,06,23,13.60
2016,06,28,06,24,13.60
2016,06,28,06,25,13.60
2016,06,28,06,26,13.60
2016,06,28,06,27,13.60
2016,06,28,06,28,13.60
2016,06,28,06,29,13.60
2016,06,28,06,30,13.60
2016,06,28,06,31,13.60
2016,06,28,06,32,13.60
2016,06,28,06,33,13.60
2016,06,28,06,34,13.60
2016,06,28,06,35,13.60
2016,06,28,06,36,13.60
2016,06,28,06,37,13.60
2016,06,28,06,38,13.70
2016,06,28,06,39,13.70
2016,06,28,06,40,13.70
2016,06,28,06,41,13.70
2016,06,28,06,42,13.70
2016,06,28,06,43,13.80
2016,06,28,06,44,13.80
2016,06,28,06,45,13.80
2016,06,28,06,46,13.80
2016,06,28,06,47,13.90
2016,06,28,06,48,13.90
2016,06,28,06,49,13.90
2016,06,28,06,50,14.00
2016,06,28,06,51,14.00
2016,06,28,06,52,14.10
2016,06,28,06,53,14.10
2016,06,28,06,54,14.20
2016,06,28,06,55,14.20
2016,06,28,06,56,14.30
2016,06,28,06,57,14.30
2016,06,28,06,58,14.30
2016,06,28,06,59,14.40
2016,06,28,07,00,14.40
2016,06,28,07,01,14.40
2016,06,28,07,02,14.50
2016,06,28,07,03,14.50
2016,06,28,07,04,14.60
2016,06,28,07,05,14.60
2016,06,28,07,06,14.70
2016,06,28,07,07,14.70
2016,06,28,07,08,14.80
2016,06,28,07,09,14.80
2016,06,28,07,10,14.80
2016,06,28,07,11,14.90
2016,06,28,07,12,14.90
2016,06,28,07,13,15.00
2016,06,28,07,14,15.00
2016,06,28,07,15,15.10
2016,06,28,07,16,15.10
2016,06,28,07,17,15.20
2016,06,28,07,18,15.20
2016,06,28,07,19,15.20
2016,06,28,07,20,15.20
2016,06,28,07,21,15.30
2016,06,28,07,22,15.30
2016,06,28,07,23,15.30
2016,06,28,07,24,15.40
2016,06,28,07,25,15.40
2016,06,28,07,26,15.40
2016,06,28,07,27,15.50
2016,06,28,07,28,15.60
2016,06,28,07,29,15.60
2016,06,28,07,30,15.60
2016,06,28,07,31,15.70
2016,06,28,07,32,15.70
2016,06,28,07,33,15.80
2016,06,28,07,34,15.80
2016,06,28,07,35,15.90
2016,06,28,07,36,15.90
2016,06,28,07,37,15.90
2016,06,28,07,38,16.00
2016,06,28,07,39,16.10
2016,06,28,07,40,16.10
2016,06,28,07,41,16.20
2016,06,28,07,42,16.30
2016,06,28,07,43,16.30
2016,06,28,07,44,16.40
2016,06,28,07,45,16.50
2016,06,28,07,46,16.60
2016,06,28,07,47,16.70
2016,06,28,07,48,16.80
2016,06,28,07,49,16.80
2016,06,28,07,50,16.90
2016,06,28,07,51,17.00
2016,06,28,07,52,17.10
2016,06,28,07,53,17.10
2016,06,28,07,54,17.20
2016,06,28,07,55,17.30
2016,06,28,07,56,17.30
2016,06,28,07,57,17.50
2016,06,28,07,58,17.60
2016,06,28,07,59,17.60
2016,06,28,08,00,17.70
2016,06,28,08,01,17.80
2016,06,28,08,02,17.90
2016,06,28,08,03,18.00
2016,06,28,08,04,18.10
2016,06,28,08,05,18.20
2016,06,28,08,06,18.30
2016,06,28,08,07,18.40
2016,06,28,08,08,18.50
2016,06,28,08,09,18.60
2016,06,28,08,10,18.70
2016,06,28,08,11,18.70
2016,06,28,08,12,18.80
2016,06,28,08,13,18.80
2016,06,28,08,14,18.90
2016,06,28,08,15,19.00
2016,06,28,08,16,19.10
2016,06,28,08,17,19.20
2016,06,28,08,18,19.30
2016,06,28,08,19,19.30
2016,06,28,08,20,19.50
2016,06,28,08,21,19.50
2016,06,28,08,22,19.60
2016,06,28,08,23,19.70
2016,06,28,08,24,19.80
2016,06,28,08,25,19.80
2016,06,28,08,26,19.80
2016,06,28,08,27,19.80
2016,06,28,08,28,19.80
2016,06,28,08,29,19.90
2016,06,28,08,30,19.90
2016,06,28,08,31,20.00
2016,06,28,08,32,20.00
2016,06,28,08,33,20.10
2016,06,28,08,34,20.10
2016,06,28,08,35,20.10
2016,06,28,08,36,20.10
2016,06,28,08,37,20.20
2016,06,28,08,38,20.20
2016,06,28,08,39,20.20
2016,06,28,08,40,20.20
2016,06,28,08,41,20.20
2016,06,28,08,42,20.20
2016,06,28,08,43,20.20
2016,06,28,08,44,20.20
2016,06,28,08,45,20.10
2016,06,28,08,46,20.10
2016,06,28,08,47,20.00
2016,06,28,08,48,19.90
2016,06,28,08,49,19.90
2016,06,28,08,50,19.80
2016,06,28,08,51,19.80
2016,06,28,08,52,19.80
2016,06,28,08,53,19.70
2016,06,28,08,54,19.70
2016,06,28,08,55,19.80
2016,06,28,08,56,19.80
2016,06,28,08,57,19.80
2016,06,28,08,58,19.80
2016,06,28,08,59,19.90
2016,06,28,09,00,19.90
2016,06,28,09,01,20.00
2016,06,28,09,02,20.00
2016,06,28,09,03,20.10
2016,06,28,09,04,20.10
2016,06,28,09,05,20.20
2016,06,28,09,06,20.20
2016,06,28,09,07,20.30
2016,06,28,09,08,20.40
2016,06,28,09,09,20.40
2016,06,28,09,10,20.50
2016,06,28,09,11,20.60
2016,06,28,09,12,20.60
2016,06,28,09,13,20.70
2016,06,28,09,14,20.70
2016,06,28,09,15,20.80
2016,06,28,09,16,20.90
2016,06,28,09,17,20.90
2016,06,28,09,18,21.00
2016,06,28,09,19,21.10
2016,06,28,09,20,21.10
2016,06,28,09,21,21.20
2016,06,28,09,22,21.20
2016,06,28,09,23,21.30
2016,06,28,09,24,21.30
2016,06,28,09,25,21.30
2016,06,28,09,26,21.30
2016,06,28,09,27,21.30
2016,06,28,09,28,21.30
2016,06,28,09,29,21.30
2016,06,28,09,30,21.30
2016,06,28,09,31,21.30
2016,06,28,09,32,21.30
2016,06,28,09,33,21.40
2016,06,28,09,34,21.40
2016,06,28,09,35,21.40
2016,06,28,09,36,21.50
2016,06,28,09,37,21.50
2016,06,28,09,38,21.60
2016,06,28,09,39,21.60
2016,06,28,09,40,21.70
2016,06,28,09,41,21.70
2016,06,28,09,42,21.70
2016,06,28,09,43,21.80
2016,06,28,09,44,21.80
2016,06,28,09,45,21.80
2016,06,28,09,46,21.90
2016,06,28,09,47,21.90
2016,06,28,09,48,21.90
2016,06,28,09,49,22.00
2016,06,28,09,50,21.90
2016,06,28,09,51,21.90
2016,06,28,09,52,21.90
2016,06,28,09,53,21.90
2016,06,28,09,54,21.90
2016,06,28,09,55,21.90
2016,06,28,09,56,21.90
2016,06,28,09,57,21.80
2016,06,28,09,58,21.80
2016,06,28,09,59,21.80
2016,06,28,10,00,21.70
2016,06,28,10,01,21.70
2016,06,28,10,02,21.70
2016,06,28,10,03,21.70
2016,06,28,10,04,21.70
2016,06,28,10,05,21.70
2016,06,28,10,06,21.80
2016,06,28,10,07,21.80
2016,06,28,10,08,21.80
2016,06,28,10,09,21.80
2016,06,28,10,10,21.80
2016,06,28,10,11,21.80
2016,06,28,10,12,21.90
2016,06,28,10,13,21.90
2016,06,28,10,14,21.90
2016,06,28,10,15,21.90
2016,06,28,10,16,21.90
2016,06,28,10,17,21.90
2016,06,28,10,18,21.90
2016,06,28,10,19,21.90
2016,06,28,10,20,22.00
2016,06,28,10,21,22.00
2016,06,28,10,22,22.00
2016,06,28,10,23,22.00
2016,06,28,10,24,22.00
2016,06,28,10,25,22.10
2016,06,28,10,26,22.10
2016,06,28,10,27,22.10
2016,06,28,10,28,22.10
2016,06,28,10,29,22.10
2016,06,28,10,30,22.10
2016,06,28,10,31,22.10
2016,06,28,10,32,22.10
2016,06,28,10,33,22.10
2016,06,28,10,34,22.10
2016,06,28,10,35,22.10
2016,06,28,10,36,22.10
2016,06,28,10,37,22.10
2016,06,28,10,38,22.20
2016,06,28,10,39,22.10
2016,06,28,10,40,22.10
2016,06,28,10,41,22.00
2016,06,28,10,42,22.00
2016,06,28,10,43,22.00
2016,06,28,10,44,22.00
2016,06,28,10,45,22.00
2016,06,28,10,46,22.00
2016,06,28,10,47,22.00
2016,06,28,10,48,22.00
2016,06,28,10,49,22.00
2016,06,28,10,50,22.00
2016,06,28,10,51,22.00
2016,06,28,10,52,22.00
2016,06,28,10,53,22.00
2016,06,28,10,54,22.10
2016,06,28,10,55,22.10
2016,06,28,10,56,22.20
2016,06,28,10,57,22.20
2016,06,28,10,58,22.20
2016,06,28,10,59,22.20
2016,06,28,11,00,22.20
2016,06,28,11,01,22.10
2016,06,28,11,02,22.10
2016,06,28,11,03,22.10
2016,06,28,11,04,22.10
2016,06,28,11,05,22.10
2016,06,28,11,06,22.10
2016,06,28,11,07,22.00
2016,06,28,11,08,22.00
2016,06,28,11,09,22.00
2016,06,28,11,10,22.00
2016,06,28,11,11,22.00
2016,06,28,11,12,22.00
2016,06,28,11,13,22.00
2016,06,28,11,14,22.00
2016,06,28,11,15,22.00
2016,06,28,11,16,21.90
2016,06,28,11,17,21.90
2016,06,28,11,18,21.90
2016,06,28,11,19,21.90
2016,06,28,11,20,21.90
2016,06,28,11,21,21.90
2016,06,28,11,22,21.90
2016,06,28,11,23,21.90
2016,06,28,11,24,22.00
2016,06,28,11,25,22.00
2016,06,28,11,26,22.10
2016,06,28,11,27,22.10
2016,06,28,11,28,22.10
2016,06,28,11,29,22.10
2016,06,28,11,30,22.10
2016,06,28,11,31,22.20
2016,06,28,11,32,22.20
2016,06,28,11,33,22.20
2016,06,28,11,34,22.20
2016,06,28,11,35,22.20
2016,06,28,11,36,22.20
2016,06,28,11,37,22.20
2016,06,28,11,38,22.30
2016,06,28,11,39,22.30
2016,06,28,11,40,22.30
2016,06,28,11,41,22.30
2016,06,28,11,42,22.20
2016,06,28,11,43,22.30
2016,06,28,11,44,22.30
2016,06,28,11,45,22.30
2016,06,28,11,46,22.30
2016,06,28,11,47,22.30
2016,06,28,11,48,22.30
2016,06,28,11,49,22.30
2016,06,28,11,50,22.30
2016,06,28,11,51,22.30
2016,06,28,11,52,22.30
2016,06,28,11,53,22.30
2016,06,28,11,54,22.30
2016,06,28,11,55,22.30
2016,06,28,11,56,22.30
2016,06,28,11,57,22.40
2016,06,28,11,58,22.40
2016,06,28,11,59,22.50
2016,06,28,12,00,22.50
2016,06,28,12,01,22.60
2016,06,28,12,02,22.60
2016,06,28,12,03,22.60
2016,06,28,12,04,22.60
2016,06,28,12,05,22.60
2016,06,28,12,06,22.50
2016,06,28,12,07,22.50
2016,06,28,12,08,22.40
2016,06,28,12,09,22.40
2016,06,28,12,10,22.40
2016,06,28,12,11,22.30
2016,06,28,12,12,22.30
2016,06,28,12,13,22.30
2016,06,28,12,14,22.30
2016,06,28,12,15,22.30
2016,06,28,12,16,22.30
2016,06,28,12,17,22.30
2016,06,28,12,18,22.30
2016,06,28,12,19,22.30
2016,06,28,12,20,22.40
2016,06,28,12,21,22.40
2016,06,28,12,22,22.40
2016,06,28,12,23,22.40
2016,06,28,12,24,22.40
2016,06,28,12,25,22.40
2016,06,28,12,26,22.40
2016,06,28,12,27,22.40
2016,06,28,12,28,22.40
2016,06,28,12,29,22.30
2016,06,28,12,30,22.30
2016,06,28,12,31,22.30
2016,06,28,12,32,22.30
2016,06,28,12,33,22.30
2016,06,28,12,34,22.40
2016,06,28,12,35,22.40
2016,06,28,12,36,22.40
2016,06,28,12,37,22.40
2016,06,28,12,38,22.40
2016,06,28,12,39,22.40
2016,06,28,12,40,22.40
2016,06,28,12,41,22.40
2016,06,28,12,42,22.40
2016,06,28,12,43,22.40
2016,06,28,12,44,22.40
2016,06,28,12,45,22.40
2016,06,28,12,46,22.40
2016,06,28,12,47,22.40
2016,06,28,12,48,22.40
2016,06,28,12,49,22.40
2016,06,28,12,50,22.30
2016,06,28,12,51,22.40
2016,06,28,12,52,22.40
2016,06,28,12,53,22.40
2016,06,28,12,54,22.40
2016,06,28,12,55,22.30
2016,06,28,12,56,22.30
2016,06,28,12,57,22.40
2016,06,28,12,58,22.40
2016,06,28,12,59,22.40
2016,06,28,13,00,22.40
2016,06,28,13,01,22.40
2016,06,28,13,02,22.40
2016,06,28,13,03,22.40
2016,06,28,13,04,22.40
2016,06,28,13,05,22.50
2016,06,28,13,06,22.50
2016,06,28,13,07,22.50
2016,06,28,13,08,22.50
2016,06,28,13,09,22.50
2016,06,28,13,10,22.60
2016,06,28,13,11,22.60
2016,06,28,13,12,22.60
2016,06,28,13,13,22.60
2016,06,28,13,14,22.60
2016,06,28,13,15,22.60
2016,06,28,13,16,22.60
2016,06,28,13,17,22.70
2016,06,28,13,18,22.70
2016,06,28,13,19,22.70
2016,06,28,13,20,22.70
2016,06,28,13,21,22.70
2016,06,28,13,22,22.80
2016,06,28,13,23,22.80
2016,06,28,13,24,22.80
2016,06,28,13,25,22.80
2016,06,28,13,26,22.80
2016,06,28,13,27,22.70
2016,06,28,13,28,22.70
2016,06,28,13,29,22.70
2016,06,28,13,30,22.60
2016,06,28,13,31,22.60
2016,06,28,13,32,22.70
2016,06,28,13,33,22.70
2016,06,28,13,34,22.70
2016,06,28,13,35,22.70
2016,06,28,13,36,22.70
2016,06,28,13,37,22.70
2016,06,28,13,38,22.70
2016,06,28,13,39,22.80
2016,06,28,13,40,22.80
2016,06,28,13,41,22.70
2016,06,28,13,42,22.70
2016,06,28,13,43,22.80
2016,06,28,13,44,22.80
2016,06,28,13,45,22.90
2016,06,28,13,46,22.90
2016,06,28,13,47,22.90
2016,06,28,13,48,22.90
2016,06,28,13,49,22.90
2016,06,28,13,50,22.90
2016,06,28,13,51,22.90
2016,06,28,13,52,22.90
2016,06,28,13,53,22.80
2016,06,28,13,54,22.80
2016,06,28,13,55,22.80
2016,06,28,13,56,22.80
2016,06,28,13,57,22.80
2016,06,28,13,58,22.80
2016,06,28,13,59,22.80
2016,06,28,14,00,22.70
2016,06,28,14,01,22.70
2016,06,28,14,02,22.70
2016,06,28,14,03,22.70
2016,06,28,14,04,22.70
2016,06,28,14,05,22.80
2016,06,28,14,06,22.80
2016,06,28,14,07,22.70
2016,06,28,14,08,22.70
2016,06,28,14,09,22.80
2016,06,28,14,10,22.80
2016,06,28,14,11,22.80
2016,06,28,14,12,22.70
2016,06,28,14,13,22.70
2016,06,28,14,14,22.70
2016,06,28,14,15,22.80
2016,06,28,14,16,22.80
2016,06,28,14,17,22.80
2016,06,28,14,18,22.80
2016,06,28,14,19,22.80
2016,06,28,14,20,22.80
2016,06,28,14,21,22.80
2016,06,28,14,22,22.80
2016,06,28,14,23,22.80
2016,06,28,14,24,22.80
2016,06,28,14,25,22.80
2016,06,28,14,26,22.90
2016,06,28,14,27,22.90
2016,06,28,14,28,22.90
2016,06,28,14,29,22.90
2016,06,28,14,30,23.00
2016,06,28,14,31,23.00
2016,06,28,14,32,23.00
2016,06,28,14,33,23.00
2016,06,28,14,34,23.00
2016,06,28,14,35,22.90
2016,06,28,14,36,22.90
2016,06,28,14,37,22.90
2016,06,28,14,38,22.90
2016,06,28,14,39,22.90
2016,06,28,14,40,22.90
2016,06,28,14,41,22.90
2016,06,28,14,42,22.90
2016,06,28,14,43,22.90
2016,06,28,14,44,22.90
2016,06,28,14,45,22.90
2016,06,28,14,46,22.90
2016,06,28,14,47,23.00
2016,06,28,14,48,23.00
2016,06,28,14,49,23.10
2016,06,28,14,50,23.10
2016,06,28,14,51,23.10
2016,06,28,14,52,23.20
2016,06,28,14,53,23.20
2016,06,28,14,54,23.20
2016,06,28,14,55,23.20
2016,06,28,14,56,23.30
2016,06,28,14,57,23.30
2016,06,28,14,58,23.30
2016,06,28,14,59,23.30
2016,06,28,15,00,23.20
2016,06,28,15,01,23.20
2016,06,28,15,02,23.30
2016,06,28,15,03,23.30
2016,06,28,15,04,23.30
2016,06,28,15,05,23.40
2016,06,28,15,06,23.40
2016,06,28,15,07,23.40
2016,06,28,15,08,23.50
2016,06,28,15,09,23.40
2016,06,28,15,10,23.40
2016,06,28,15,11,23.40
2016,06,28,15,12,23.40
2016,06,28,15,13,23.40
2016,06,28,15,14,23.40
2016,06,28,15,15,23.40
2016,06,28,15,16,23.40
2016,06,28,15,17,23.40
2016,06,28,15,18,23.40
2016,06,28,15,19,23.40
2016,06,28,15,20,23.40
2016,06,28,15,21,23.40
2016,06,28,15,22,23.40
2016,06,28,15,23,23.40
2016,06,28,15,24,23.40
2016,06,28,15,25,23.50
2016,06,28,15,26,23.50
2016,06,28,15,27,23.60
2016,06,28,15,28,23.60
2016,06,28,15,29,23.60
2016,06,28,15,30,23.60
2016,06,28,15,31,23.70
2016,06,28,15,32,23.70
2016,06,28,15,33,23.70
2016,06,28,15,34,23.60
2016,06,28,15,35,23.60
2016,06,28,15,36,23.60
2016,06,28,15,37,23.50
2016,06,28,15,38,23.50
2016,06,28,15,39,23.50
2016,06,28,15,40,23.40
2016,06,28,15,41,23.40
2016,06,28,15,42,23.40
2016,06,28,15,43,23.40
2016,06,28,15,44,23.40
2016,06,28,15,45,23.40
2016,06,28,15,46,23.50
2016,06,28,15,47,23.50
2016,06,28,15,48,23.60
2016,06,28,15,49,23.60
2016,06,28,15,50,23.60
2016,06,28,15,51,23.50
2016,06,28,15,52,23.50
2016,06,28,15,53,23.40
2016,06,28,15,54,23.40
2016,06,28,15,55,23.30
2016,06,28,15,56,23.30
2016,06,28,15,57,23.30
2016,06,28,15,58,23.40
2016,06,28,15,59,23.40
2016,06,28,16,00,23.40
2016,06,28,16,01,23.40
2016,06,28,16,02,23.40
2016,06,28,16,03,23.40
2016,06,28,16,04,23.50
2016,06,28,16,05,23.50
2016,06,28,16,06,23.60
2016,06,28,16,07,23.60
2016,06,28,16,08,23.60
2016,06,28,16,09,23.70
2016,06,28,16,10,23.80
2016,06,28,16,11,23.80
2016,06,28,16,12,23.80
2016,06,28,16,13,23.70
2016,06,28,16,14,23.70
2016,06,28,16,15,23.60
2016,06,28,16,16,23.60
2016,06,28,16,17,23.60
2016,06,28,16,18,23.60
2016,06,28,16,19,23.60
2016,06,28,16,20,23.60
2016,06,28,16,21,23.50
2016,06,28,16,22,23.50
2016,06,28,16,23,23.50
2016,06,28,16,24,23.50
2016,06,28,16,25,23.50
2016,06,28,16,26,23.60
2016,06,28,16,27,23.60
2016,06,28,16,28,23.60
2016,06,28,16,29,23.60
2016,06,28,16,30,23.60
2016,06,28,16,31,23.60
2016,06,28,16,32,23.70
2016,06,28,16,33,23.70
2016,06,28,16,34,23.70
2016,06,28,16,35,23.70
2016,06,28,16,36,23.70
2016,06,28,16,37,23.70
2016,06,28,16,38,23.70
2016,06,28,16,39,23.70
2016,06,28,16,40,23.70
2016,06,28,16,41,23.70
2016,06,28,16,42,23.70
2016,06,28,16,43,23.70
2016,06,28,16,44,23.60
2016,06,28,16,45,23.60
2016,06,28,16,46,23.50
2016,06,28,16,47,23.50
2016,06,28,16,48,23.50
2016,06,28,16,49,23.50
2016,06,28,16,50,23.60
2016,06,28,16,51,23.60
2016,06,28,16,52,23.60
2016,06,28,16,53,23.60
2016,06,28,16,54,23.50
2016,06,28,16,55,23.40
2016,06,28,16,56,23.40
2016,06,28,16,57,23.30
2016,06,28,16,58,23.30
2016,06,28,16,59,23.30
2016,06,28,17,00,23.40
2016,06,28,17,01,23.40
2016,06,28,17,02,23.40
2016,06,28,17,03,23.50
2016,06,28,17,04,23.60
2016,06,28,17,05,23.60
2016,06,28,17,06,23.70
2016,06,28,17,07,23.70
2016,06,28,17,08,23.70
2016,06,28,17,09,23.80
2016,06,28,17,10,23.80
2016,06,28,17,11,23.80
2016,06,28,17,12,23.90
2016,06,28,17,13,23.90
2016,06,28,17,14,23.90
2016,06,28,17,15,23.90
2016,06,28,17,16,23.90
2016,06,28,17,17,23.90
2016,06,28,17,18,23.80
2016,06,28,17,19,23.80